This is the latest recevied weather packets stored in our database for station/object W1HVD. If no packets are shown the sender has not sent any weather packets the latest 10 day(s).
| Time | Temp. | Humidity | Pressure | Rain* | Wind** | Luminosity | Snow |
|---|---|---|---|---|---|---|---|
| 1778249722 | 14.44° C | 40% | 1009.9 hPa | 0 mm | - | 627 W/m² | - |
| 1778249421 | 14.44° C | 38% | 1009.9 hPa | 0 mm | - | 616 W/m² | - |
| 1778249118 | 14.44° C | 38% | 1010 hPa | 0 mm | - | 605 W/m² | - |
| 1778248814 | 13.89° C | 41% | 1010 hPa | 0 mm | - | 597 W/m² | - |
| 1778248510 | 14.44° C | 42% | 1010.1 hPa | 0 mm | - | 585 W/m² | - |
| 1778248206 | 14.44° C | 41% | 1010.1 hPa | 0 mm | - | 573 W/m² | - |
| 1778247903 | 14.44° C | 43% | 1010.1 hPa | 0 mm | - | 563 W/m² | - |
| 1778247600 | 13.89° C | 39% | 1010.2 hPa | 0 mm | - | 552 W/m² | - |
| 1778247297 | 13.89° C | 40% | 1010.3 hPa | 0 mm | - | 541 W/m² | - |
| 1778246994 | 13.33° C | 41% | 1010.4 hPa | 0 mm | - | 530 W/m² | - |
| 1778246692 | 13.33° C | 41% | 1010.3 hPa | 0 mm | - | 518 W/m² | - |
| 1778246388 | 12.78° C | 44% | 1010.5 hPa | 0 mm | - | 508 W/m² | - |
| 1778246084 | 13.33° C | 42% | 1010.4 hPa | 0 mm | - | 494 W/m² | - |
| 1778245780 | 13.33° C | 42% | 1010.6 hPa | 0 mm | - | 483 W/m² | - |
| 1778245478 | 12.78° C | 42% | 1010.5 hPa | 0 mm | - | 424 W/m² | - |
| 1778245173 | 12.22° C | 42% | 1010.4 hPa | 0 mm | - | 514 W/m² | - |
| 1778244869 | 12.78° C | 44% | 1010.5 hPa | 0 mm | - | 520 W/m² | - |
| 1778244568 | 12.78° C | 44% | 1010.4 hPa | 0 mm | - | 498 W/m² | - |
| 1778244265 | 11.67° C | 51% | 1010.5 hPa | 0 mm | - | 514 W/m² | - |
| 1778243963 | 11.67° C | 50% | 1010.6 hPa | 0 mm | - | 263 W/m² | - |
| 1778243661 | 11.67° C | 48% | 1010.5 hPa | 0 mm | - | 169 W/m² | - |
| 1778243357 | 11.67° C | 49% | 1010.5 hPa | 0 mm | - | 176 W/m² | - |
| 1778243054 | 11.67° C | 47% | 1010.6 hPa | 0 mm | - | 191 W/m² | - |
| 1778242751 | 11.11° C | 53% | 1010.5 hPa | 0 mm | - | 228 W/m² | - |
| 1778242450 | 10.56° C | 51% | 1010.5 hPa | 0 mm | - | 176 W/m² | - |
* Rain latest hour (hover to see other rain measurements)
** Current wind speed in m/s (hover to see current wind gust speed)